Tracking 19219 objects as of 19-Jul-2018
HD Live streaming from Space Station
objects crossing your sky now

KAITUO 1A

Track KAITUO 1A now!
10-day predictions
KAITUO 1A is classified as:


NORAD ID: 40904
Int'l Code: 2015-049F
Perigee: 518.8 km
Apogee: 537.1 km
Inclination: 97.5 °
Period: 95.0 minutes
Semi major axis: 6898 km
RCS: Unknown
Launch date: September 19, 2015
Source: People's Republic of China (PRC)
Launch site: Taiyaun Space Center, China (TSC)
aabbcc
Your satellite tracking list
Your tracking list is empty




NASA's NSSDC Master Catalog

Two Line Element Set (TLE):
1 40904U 15049F   18200.10133369  .00000155  00000-0  11804-4 0  9992
2 40904  97.4584 203.0905 0013216 290.8366 109.3547 15.15055358156337
Source of the keplerian elements: AFSPC